Temp
-8 -8 -8 -8 -8 -8 -8 -8 -8 -8 -8 -8 -8 -8 -7 -7 -7 -7 -5 -6 -5 -4 -3 -2 -1 -1 -1
-10 -10 -10 -11 -10 -10 -10 -10 -9 -10 -10 -10 -10 -10 -9 -10 -9 -9 -9 -9 -8 -7 -7 -6 -5 -4 -3
-11 -12 -12 -12 -12 -12 -12 -12 -11 -12 -11 -12 -12 -12 -12 -12 -11 -11 -12 -11 -12 -12 -11 -10 -9 -8 -7
-13 -13 -14 -14 -14 -14 -13 -13 -13 -14 -14 -14 -13 -13 -13 -14 -14 -15 -14 -15 -15 -15 -14 -14 -13 -12 -11
-15 -15 -14 -15 -15 -15 -14 -15 -15 -15 -15 -15 -15 -15 -15 -16 -16 -17 -17 -17 -17 -16 -16 -16 -16 -15 -15
-16 -16 -15 -15 -15 -16 -16 -16 -15 -16 -17 -15 -17 -16 -17 -17 -17 -17 -17 -18 -18 -18 -18 -18 -17 -17 -17
-16 -16 -16 -17 -17 -18 -18 -18 -17 -18 -19 -16 -20 -17 -18 -18 -19 -19 -19 -19 -19 -19 -19 -18 -18 -18 -18
-18 -18 -18 -18 -19 -19 -19 -20 -19 -19 -21 -19 -21 -19 -20 -20 -19 -20 -20 -19 -19 -19 -19 -19 -19 -19 -19
-18 -18 -18 -19 -20 -22 -21 -23 -20 -19 -20 -22 -21 -21 -21 -21 -21 -20 -20 -20 -20 -20 -20 -20 -20 -20 -20
-19 -19 -19 -19 -20 -21 -21 -22 -21 -21 -21 -23 -23 -23 -23 -21 -21 -22 -21 -21 -21 -21 -21 -21 -21 -21 -21
-19 -19 -19 -20 -21 -22 -22 -23 -23 -23 -22 -24 -24 -24 -24 -23 -23 -23 -23 -22 -22 -22 -22 -22 -21 -22 -22
-21 -20 -21 -21 -22 -23 -23 -24 -25 -25 -25 -25 -25 -25 -25 -24 -24 -24 -24 -23 -23 -23 -22 -22 -22 -22 -22
-22 -22 -22 -23 -24 -24 -25 -25 -25 -25 -25 -25 -25 -25 -25 -25 -24 -24 -23 -23 -23 -22 -22 -22 -22 -22 -22
-23 -23 -23 -24 -25 -26 -26 -25 -25 -25 -25 -25 -25 -25 -25 -25 -25 -24 -23 -23 -23 -23 -23 -23 -23 -22 -22
-24 -24 -24 -25 -25 -26 -26 -26 -26 -26 -25 -25 -25 -25 -25 -25 -24 -24 -24 -23 -23 -23 -24 -23 -23 -23 -23
-25 -25 -26 -26 -27 -27 -26 -26 -26 -26 -26 -26 -25 -25 -24 -24 -24 -24 -24 -24 -24 -24 -24 -24 -23 -23 -23
-27 -27 -27 -27 -27 -27 -26 -26 -26 -26 -26 -25 -25 -25 -24 -24 -23 -24 -25 -24 -24 -23 -23 -24 -24 -23 -23
Height
3023 3024 3023 3024 3025 3023 3020 3019 3018 3018 3018 3017 3017 3017 3016 3017 3017 3016 3016 3019 3018 3019 3020 3021 3022 3024 3029
3010 3009 3007 3008 3007 3009 3009 3007 3005 3005 3004 3004 3003 3003 3003 3002 3002 3001 3001 3001 3002 3003 3003 3004 3004 3005 3006
2995 2996 2994 2994 2993 2992 2992 2994 2993 2992 2991 2991 2990 2990 2989 2989 2987 2987 2987 2987 2987 2986 2986 2987 2988 2989 2990
2981 2982 2983 2982 2979 2978 2979 2978 2979 2979 2979 2978 2978 2978 2976 2975 2974 2974 2974 2973 2973 2973 2973 2973 2973 2973 2974
2970 2970 2970 2969 2966 2965 2964 2965 2966 2966 2966 2968 2964 2963 2965 2963 2962 2962 2962 2961 2961 2961 2959 2959 2959 2959 2959
2958 2958 2958 2956 2954 2954 2952 2951 2951 2953 2952 2953 2951 2950 2950 2949 2950 2950 2950 2949 2949 2947 2947 2946 2945 2944 2944
2945 2944 2944 2943 2942 2940 2939 2936 2937 2937 2934 2935 2934 2935 2936 2936 2938 2938 2938 2937 2936 2935 2934 2933 2933 2931 2929
2932 2932 2932 2932 2930 2929 2928 2925 2924 2924 2924 2917 2919 2920 2921 2923 2924 2924 2923 2923 2922 2920 2920 2920 2918 2915 2913
2921 2921 2921 2920 2919 2918 2916 2914 2910 2910 2911 2908 2908 2906 2906 2906 2908 2910 2909 2907 2906 2906 2905 2904 2902 2900 2897
2910 2909 2908 2907 2907 2905 2905 2901 2900 2897 2902 2897 2896 2895 2890 2893 2893 2892 2892 2893 2892 2891 2890 2889 2888 2885 2880
2895 2895 2895 2895 2894 2893 2892 2890 2887 2884 2889 2887 2884 2883 2880 2877 2877 2877 2877 2877 2876 2875 2876 2875 2873 2871 2865
2881 2881 2880 2880 2880 2880 2880 2879 2877 2875 2877 2877 2873 2872 2869 2865 2863 2867 2865 2864 2862 2858 2857 2856 2855 2854 2851
2869 2869 2869 2868 2868 2867 2868 2867 2866 2865 2865 2865 2863 2860 2857 2852 2848 2847 2846 2846 2845 2843 2841 2838 2836 2835 2832
2859 2858 2857 2857 2856 2856 2854 2855 2854 2853 2853 2853 2851 2848 2843 2840 2836 2831 2831 2828 2829 2827 2825 2821 2819 2818 2816
2846 2846 2846 2845 2844 2845 2843 2842 2840 2838 2838 2838 2838 2835 2830 2826 2821 2819 2817 2814 2814 2812 2809 2803 2801 2801 2800
2835 2834 2834 2834 2834 2834 2833 2831 2828 2827 2825 2825 2823 2818 2814 2811 2811 2806 2804 2801 2800 2797 2794 2787 2783 2786 2785
2825 2825 2825 2824 2824 2823 2822 2820 2817 2814 2812 2811 2808 2805 2798 2792 2798 2797 2789 2787 2784 2779 2778 2773 2767 2767 2768
Wind_Speed
55 52 51 49 47 47 48 49 48 47 48 49 49 50 51 52 53 57 61 59 62 65 68 70 71 71 69
55 52 51 47 47 45 44 46 47 46 45 46 47 48 48 49 51 53 53 55 58 59 61 64 68 71 73
55 51 50 46 44 44 42 40 41 42 44 43 43 44 44 47 50 52 50 52 51 52 55 58 60 62 66
52 50 47 42 43 43 42 41 40 39 40 41 42 44 45 45 46 46 48 48 48 49 51 52 54 56 59
50 47 45 42 43 43 44 42 40 39 40 39 42 43 43 44 44 44 45 46 47 48 50 50 50 51 51
46 45 42 43 43 42 42 43 45 42 40 44 41 44 44 43 44 44 45 46 47 48 48 49 50 50 50
44 43 43 41 42 44 44 46 47 45 46 49 43 46 44 44 43 43 44 45 46 48 49 49 49 51 52
42 42 42 43 44 45 45 47 49 49 44 52 47 49 45 43 41 41 42 44 47 49 49 49 50 51 53
41 42 42 43 43 41 44 42 50 51 48 48 48 48 47 47 44 41 42 45 47 47 47 46 49 51 53
41 42 42 43 43 42 44 46 48 51 47 47 48 47 51 49 47 46 46 46 48 48 48 49 51 53 55
43 43 43 42 42 40 40 41 43 46 45 38 42 43 44 45 43 42 42 46 47 48 51 52 52 53 55
43 43 42 41 39 36 35 35 37 39 37 35 38 39 41 47 50 48 50 53 55 56 55 54 52 50 50
42 42 42 42 41 40 35 34 34 36 39 41 47 50 53 57 58 56 55 54 53 52 51 51 49 48 49
40 42 42 43 44 37 40 44 47 51 50 50 49 49 52 54 54 56 53 53 50 50 49 49 49 48 49
38 38 39 39 40 40 42 43 45 46 47 46 45 47 50 50 52 51 51 51 49 48 47 51 51 50 50
36 37 37 35 34 36 38 40 43 46 48 48 47 47 48 48 47 50 50 50 47 47 49 53 55 51 50
32 33 35 38 41 43 42 43 46 47 47 45 44 44 48 51 44 43 46 45 46 49 49 52 56 55 52
Wind_Direction
297 294 290 286 281 279 279 278 278 277 276 275 274 273 272 270 270 268 267 266 263 262 262 262 264 265 263
293 290 287 285 283 279 275 275 276 276 275 275 274 274 274 273 273 272 270 270 269 267 265 263 261 262 264
289 286 285 284 282 279 278 274 273 276 276 276 276 276 274 272 272 272 273 271 271 271 270 268 266 264 263
283 282 281 279 277 278 275 276 277 275 277 278 277 276 274 273 273 272 272 272 272 271 271 271 271 270 268
278 277 275 275 275 275 279 281 279 281 278 279 276 275 273 272 271 269 269 269 270 271 272 272 272 272 272
272 272 271 272 274 279 280 280 281 280 281 278 276 276 275 272 269 267 266 265 266 267 268 270 273 275 275
273 273 276 280 280 281 284 285 287 289 287 285 282 278 275 273 274 271 268 266 264 264 266 269 272 273 273
270 271 273 275 276 278 281 281 281 282 282 281 281 283 283 279 276 271 268 266 266 267 269 269 270 270 271
269 270 270 270 270 273 275 274 276 278 280 280 281 282 280 277 272 270 267 265 264 265 267 269 271 274 274
268 269 271 272 271 268 270 270 273 275 275 275 278 278 278 278 281 278 272 269 269 268 269 271 274 276 276
274 272 271 271 271 271 271 270 272 273 274 274 277 277 277 281 276 274 274 275 273 273 274 276 276 276 276
274 274 275 276 276 272 266 259 261 269 273 272 268 269 270 273 274 273 273 274 275 277 279 279 277 275 273
270 275 276 276 274 272 261 255 253 255 258 263 273 277 280 281 283 282 282 279 279 280 280 280 281 280 277
266 268 271 270 270 267 267 264 263 264 268 272 275 277 279 279 281 281 281 282 282 282 284 282 280 278 278
269 269 267 266 266 265 266 269 271 272 273 275 276 277 278 279 279 280 282 281 282 284 283 281 278 278 279
262 264 267 268 266 266 268 271 274 276 279 281 282 281 279 277 278 282 283 285 284 282 280 281 281 281 281
265 266 267 266 267 272 275 277 277 278 280 282 282 284 284 284 285 286 288 283 282 282 283 284 285 284 285